Regional Weather Roundup
Issued by NWS

Home | Current Version | Previous Version | Text Only | Print | Product List | Glossary On
Versions: 1 2 3 4 5 6 7 8 9 10 11 12 13 14 15 16 17 18 19 20 21 22 23 24 25 26 27 28
000
ASUS42 KFFC 301803
RWRGA
WEATHER ROUNDUP FOR GEORGIA
NATIONAL WEATHER SERVICE PEACHTREE CITY GA
200 PM EDT THU OCT 30 2014

NOTE: "FAIR" INDICATES FEW OR NO CLOUDS BELOW 12,000 FEET WITH NO
SIGNIFICANT WEATHER AND/OR OBSTRUCTIONS TO VISIBILITY.

* = USE WITH CAUTION. THE STATIONS MARKED WITH AN ASTERISK MAY NOT
REPORT WEATHER SUCH AS PRECIPITATION, FOG, OR THUNDER AND ARE NOT
QUALITY CONTROLLED BY NWS.

THE REMARK "TC" DENOTES TEMPERATURE READING IN DEGREES CELSIUS.

GAZ001>058-301900-
NORTH GEORGIA

CITY           SKY/WX    TMP DP  RH WIND       PRES   REMARKS
ATLANTA        SUNNY     63  39  41 S5        30.03F
6HR MIN TEMP:  45; 6HR MAX TEMP:  65;

ATHENS         SUNNY     66  39  37 VRB3      30.02F
6HR MIN TEMP:  42; 6HR MAX TEMP:  66;

CHAMBLEE       SUNNY     66  37  34 VRB6      30.03F
6HR MIN TEMP:  40; 6HR MAX TEMP:  66;

PEACHTREE CITY SUNNY     65  41  41 CALM      30.04F
6HR MIN TEMP:  41; 6HR MAX TEMP:  66;

ROME           SUNNY     64  39  39 N8        30.05F
6HR MIN TEMP:  36; 6HR MAX TEMP:  65;

WEST ATLANTA   SUNNY     66  40  38 VRB6      30.04F
6HR MIN TEMP:  41; 6HR MAX TEMP:  66;

GAINESVILLE    SUNNY     63  36  36 W5        30.05F
6HR MIN TEMP:  42; 6HR MAX TEMP:  64;

CARTERSVILLE   SUNNY     63  36  36 CALM      30.06F
6HR MIN TEMP:  36; 6HR MAX TEMP:  64;



CITY           SKY/WX    TMP DP  RH WIND       PRES   REMARKS
DALTON*        SUNNY     61  37  41 NW7       30.05F
LAWRENCEVILLE* SUNNY     64  36  34 S5        30.03F
MARIETTA       SUNNY     65  35  33 NW8       30.04F
KENNESAW*      SUNNY     63  37  39 N6        30.07F
$$

GAZ059>098-102>109-301900-
CENTRAL GEORGIA

CITY           SKY/WX    TMP DP  RH WIND       PRES   REMARKS
AUGUSTA-BUSH   SUNNY     72  41  32 N9        29.97F
6HR MIN TEMP:  53; 6HR MAX TEMP:  73;

AUGUSTA-DANIEL SUNNY     71  40  32 NE3       29.99F
6HR MIN TEMP:  54; 6HR MAX TEMP:  72;

COLUMBUS       SUNNY     68  40  35 N7        30.02F
6HR MIN TEMP:  50; 6HR MAX TEMP:  69;

MACON          SUNNY     69  46  43 VRB5      30.00F
6HR MIN TEMP:  47; 6HR MAX TEMP:  70;

ROBINS AFB     MOSUNNY   69  49  49 N6        30.00F


CITY           SKY/WX    TMP DP  RH WIND       PRES   REMARKS
LAGRANGE*      SUNNY     67  44  41 NE6       30.04F
SYLVANIA*      SUNNY     76  57  51 N5        29.97F
MILLEDGEVILLE* SUNNY     68  50  52 NE5       30.00F
$$

GAZ099>101-110>166-301900-
SOUTH GEORGIA

CITY           SKY/WX    TMP DP  RH WIND       PRES   REMARKS
SAVANNAH       PTSUNNY   72  59  63 CALM      29.96F
6HR MIN TEMP:  65; 6HR MAX TEMP:  72;

VALDOSTA       CLOUDY    67  43  41 VRB3      29.98F
6HR MIN TEMP:  61; 6HR MAX TEMP:  69; 6HR PCP: TRACE;

ALMA           SUNNY     74  44  34 CALM      29.95F
6HR MIN TEMP:  58; 6HR MAX TEMP:  74;

ST SIMONS      PTSUNNY   74  63  68 NE8       29.94F
6HR MIN TEMP:  64; 6HR MAX TEMP:  76;

FT STEWART     SUNNY     72  58  62 CALM      29.95F
ALBANY         SUNNY     71  46  40 NW8       30.01F
HUNTER AFB     MOSUNNY   72  61  68 N7        29.94F
MOODY AFB      CLOUDY    65  51  60 W6        29.98F
BRUNSWICK      PTSUNNY   77  61  57 W6        29.94F


CITY           SKY/WX    TMP DP  RH WIND       PRES   REMARKS
BAINBRIDGE*    MOSUNNY   73  45  35 N7        30.00F
MOULTRIE*      MOSUNNY   70  46  43 CALM      30.00F
VIDALIA*       MOSUNNY   70  55  60 E3        29.97F
WAYCROSS*      MOSUNNY   74  60  62 W5        29.96F
DOUGLAS*       PTSUNNY   73  45  35 NW5       29.98F
$$



USA.gov is the U.S. government's official web portal to all federal, state and local government web resources and services.